Regional Weather Roundup
Issued by NWS

Home | Current Version | Previous Version | Graphics & Text | Print | Product List | Glossary On
Versions: 1 2 3 4 5 6 7 8 9 10 11 12 13 14 15 16 17 18 19 20 21 22 23 24 25 26 27 28 29 30 31 32 33 34 35 36 37 38 39 40 41 42 43 44 45 46 47 48 49 50
000
ASUS43 KIND 260159
RWRIN

WEATHER ROUNDUP FOR INDIANA
NATIONAL WEATHER SERVICE INDIANAPOLIS IN
1000 PM EDT WED MAY 25 2016

NOTE: "FAIR" INDICATES FEW OR NO CLOUDS BELOW 12,000 FEET WITH NO
SIGNIFICANT WEATHER AND/OR OBSTRUCTIONS TO VISIBILITY.

* - STATION DOES NOT REPORT WEATHER SUCH AS PRECIPITATION OR FOG.

+ - STATION NOT QUALITY CONTROLLED BY THE NATIONAL WEATHER SERVICE.
    USE DATA WITH CAUTION...ESPECIALLY DEWPOINT AND RELATIVE
    HUMIDITY OBSERVATIONS.

INZ001>003-010>013-019-020-260300-
NORTHWEST INDIANA

CITY           SKY/WX    TMP DP  RH WIND       PRES   REMARKS
GARY /AIRPORT/ CLOUDY    66  66 100 CALM      29.95R
RENSSELAER +   CLOUDY    77  59  53 S10       29.96S

$$

LMZ046-743>745-260300-
SOUTHERN LAKE MICHIGAN

STATION/POSITION TIME  TEMP    WIND        PRES    WAVE
                       AIR SEA DIR/SP/G            HT
                 (UTC) (F)     (DEG/KT/KT) (MB)    (FT)
BURNS HARBOR     0100   62     360/ 10/ 23 1014.2R
MICHIGAN CITY    0100   67     130/  2/  3   N/A
5NW MICH CITY    0100   62 60   50/  4/ 16   N/A     1

$$

INZ004-005-014>016-021>024-260300-
NORTH CENTRAL INDIANA

CITY           SKY/WX    TMP DP  RH WIND       PRES   REMARKS
GOSHEN         CLOUDY    77  58  51 S8        29.96R
SOUTH BEND     MOCLDY    77  62  59 SW7       29.95R

$$

INZ006>009-017-018-025>027-260300-
NORTHEAST INDIANA

CITY           SKY/WX    TMP DP  RH WIND       PRES   REMARKS
ANGOLA *+      CLEAR     72  61  68 S3        29.98R
FORT WAYNE     MOCLDY    75  60  59 S8        29.99R

$$

INZ028-029-035-036-043>045-051>053-260300-
WEST CENTRAL INDIANA

CITY           SKY/WX    TMP DP  RH WIND       PRES   REMARKS
CRAWFORDSVL +  CLOUDY    71  62  75 S9        30.00R
GREENCASTLE +  CLOUDY    72  64  78 S8        30.02R
LAFAYETTE      CLOUDY    74  60  61 S7        29.98R
TERRE HAUTE    PTCLDY    73  63  70 S10       30.01R

$$

INZ030>032-037>040-046>048-054>057-064-065-260300-
CENTRAL INDIANA

CITY           SKY/WX    TMP DP  RH WIND       PRES   REMARKS
COLUMBUS       CLEAR     73  63  68 S12       30.04R
INDIANAPOLIS   MOCLDY    74  62  66 S8        30.00R
-EAGLE CREEK   CLOUDY    75  61  61 S5        30.01R
KOKOMO *+      CLOUDY    75  61  60 SW14      29.99S
SHELBYVILLE    PTCLDY    77  64  64 S12       30.02R

$$

INZ033-034-041-042-049-050-058-059-260300-
EAST CENTRAL INDIANA

CITY           SKY/WX    TMP DP  RH WIND       PRES   REMARKS
MUNCIE         PTCLDY    78  62  57 SW12      30.02R

$$

INZ060-061-067>069-081>083-085>088-260300-
SOUTHWEST INDIANA

CITY           SKY/WX    TMP DP  RH WIND       PRES   REMARKS
EVANSVILLE     CLOUDY    70  64  81 S14G21    30.03R
HUNTINGBURG *+ CLOUDY    68  61  77 S9        30.05R

$$

INZ062-063-066-070>080-084-089>092-260300-
SOUTH CENTRAL AND SOUTHEAST INDIANA

CITY           SKY/WX    TMP DP  RH WIND       PRES   REMARKS
BLOOMINGTON    CLOUDY    72  62  71 S8        30.04R
MADISON *+     CLOUDY    70  61  73 S8        30.08R
SEYMOUR +      MOCLDY    73  61  64 S13       30.05R

$$





USA.gov is the U.S. government's official web portal to all federal, state and local government web resources and services.